Flag for Germany Weather past 2 weeks in Stassfurt, Saxony-Anhalt, Germany

Now
38 °F

Drizzle. Overcast.


Feels Like: 33 °F
Forecast: 24 / 36 °F
Wind: 7 mph from Northwest

Location: Magdeburg

Current Time: Dec 25, 2014 at 8:56:56 PM

Latest Report: Dec 25, 2014 at 8:00 PM


Visibility: 25 mi

Pressure: 30.09 "Hg

Humidity: 85%

Dew point: 34 °F

Location of StassfurtLocation

Historic Weather in Stassfurt — Graph

°F

Stassfurt temperature yesterday

Maximum temperature yesterday: 52 °F (at 12:00 AM)
Minimum temperature yesterday: 41 °F (at 11:00 PM)
Average temperature yesterday: 49 °F

Past Weeks' High & Low Weather Summary

 TemperatureHumidityPressure
High56 °F (Dec 18, 11:00 PM)97% (Dec 17, 7:00 PM)30.30 "Hg (Dec 17, 7:00 PM)
Low28 °F (Dec 15, 3:00 AM)61% (Dec 25, 3:00 PM)29.38 "Hg (Dec 12, 5:00 PM)
Average43 °F81%29.87 "Hg
* Reported Dec 10 8:00 PM — Dec 25 8:00 PM, Stassfurt, Weather by CustomWeather, © 2014

Note: Actual official high and low records may vary slightly from our data, if they occured in-between our weather recording intervals... More about our weather records

Advertising

Stassfurt weather history for previous 24 hours

 ConditionsComfort  
Time TempWeatherWind HumidityBarometerVisibility
8:00 PM
Dec 25
38 °FDrizzle. Overcast.7 mph85%30.09 "Hg25 mi
7:00 PM41 °FOvercast.7 mph72%30.05 "Hg19 mi
6:00 PM41 °FPassing clouds.8 mph67%30.04 "Hg19 mi
5:00 PM41 °FPassing clouds.6 mph65%30.03 "Hg28 mi
3:00 PM44 °FScattered clouds.8 mph61%30.02 "Hg25 mi
2:00 PM42 °FScattered clouds.9 mph68%30.01 "Hg25 mi
1:00 PM43 °FScattered clouds.8 mph76%30.01 "Hg22 mi
12:00 PM43 °FOvercast.9 mph76%30.00 "Hg25 mi
11:00 AM43 °FSprinkles. Overcast.8 mph75%30.01 "Hg25 mi
9:00 AM41 °FScattered clouds.7 mph72%30.00 "Hg34 mi
8:00 AM41 °FPassing clouds.6 mph74%30.00 "Hg34 mi
7:00 AM41 °FPassing clouds.5 mph74%30.00 "Hg28 mi
6:00 AM41 °FOvercast.6 mph76%30.01 "Hg28 mi
5:00 AM40 °FOvercast.6 mph78%30.02 "Hg22 mi
3:00 AM40 °FOvercast.5 mph79%30.01 "Hg25 mi
2:00 AM40 °FOvercast.5 mph79%30.01 "Hg31 mi
1:00 AM40 °FClear.5 mph79%30.00 "Hg28 mi
12:00 AM42 °FDrizzle. Overcast.5 mph83%29.99 "Hg12 mi
11:00 PM
Dec 24
41 °FPassing clouds.3 mph85%29.97 "Hg28 mi
9:00 PM44 °FOvercast.5 mph84%29.93 "Hg40 mi
8:00 PM43 °FOvercast.3 mph83%29.92 "Hg43 mi
Weather by CustomWeather, © 2014

See weather overviewHow to use our weather pages